Location: Gleizolles
(44.4833°N, 6.7667°E)
Time: 16:32:01
(UTC+00:00)

TIGRISAT - Visible Passes

Search period start: 30 November 2022 00:00
Search period end: 10 December 2022 00:00
Orbit: 603 x 685 km, 97.7° (Epoch: 29 November)

Date Brightness Start Highest point End Pass type
(mag) Time Alt. Az. Time Alt. Az. Time Alt. Az.
30 Nov ? 03:31:50 10° ESE 03:34:49 18° ENE 03:36:16 16° NE visible
30 Nov ? 05:06:55 10° S 05:11:04 47° W 05:13:55 19° NNW visible
30 Nov ? 16:55:41 10° NNE 16:59:51 32° E 17:04:02 10° SSE visible
30 Nov ? 18:32:23 10° N 18:36:23 29° WNW 18:40:23 10° SW visible
01 Dec ? 03:55:25 10° SE 03:59:13 31° ENE 04:01:01 23° NNE visible
01 Dec ? 05:32:11 10° SSW 05:35:51 26° W 05:38:40 15° NW visible
01 Dec ? 17:20:01 10° NNE 17:24:37 57° E 17:29:12 10° S visible
01 Dec ? 18:57:41 10° NNW 19:00:47 18° WNW 19:03:54 10° WSW visible
02 Dec ? 04:19:29 10° SSE 04:23:43 54° ENE 04:25:46 29° N visible
02 Dec ? 05:58:12 10° SW 06:00:43 15° W 06:03:16 10° NW visible
02 Dec ? 17:44:35 10° N 17:49:16 82° WNW 17:53:57 10° SSW visible
02 Dec ? 19:23:59 10° NW 19:25:06 11° WNW 19:26:13 10° WNW visible
03 Dec ? 03:10:50 10° E 03:12:24 12° ENE 03:12:53 12° NE visible
03 Dec ? 04:43:58 10° S 04:48:19 83° W 04:50:32 29° NNW visible
03 Dec ? 16:33:35 10° NE 16:37:01 20° E 16:40:26 10° SE visible
03 Dec ? 18:09:22 10° N 18:13:50 47° WNW 18:18:18 10° SW visible
04 Dec ? 03:33:34 10° ESE 03:36:43 20° ENE 03:37:38 18° NE visible
04 Dec ? 05:08:50 10° S 05:12:59 45° W 05:15:18 24° NW visible
04 Dec ? 16:57:34 10° NNE 17:01:50 34° E 17:06:05 10° SSE visible
04 Dec ? 18:34:22 10° N 18:38:19 28° WNW 18:42:16 10° SW visible
05 Dec ? 03:57:12 10° SE 04:01:07 33° ENE 04:02:25 27° NE visible
05 Dec ? 05:34:09 10° SSW 05:37:47 25° W 05:40:04 17° NW visible
05 Dec ? 17:21:56 10° NNE 17:26:35 60° E 17:31:11 10° S visible
05 Dec ? 18:59:42 10° NNW 19:02:43 17° WNW 19:05:42 10° WSW visible
06 Dec ? 04:21:20 10° SSE 04:25:37 58° ENE 04:27:11 37° NNE visible
06 Dec ? 06:00:15 10° WSW 06:02:39 14° W 06:04:50 11° WNW visible
06 Dec ? 17:46:32 10° N 17:51:13 78° WNW 17:55:53 10° SSW visible
06 Dec ? 19:26:24 10° NW 19:27:00 10° WNW 19:27:37 10° WNW visible
07 Dec ? 03:12:22 10° E 03:14:16 13° ENE 03:14:18 13° ENE visible
07 Dec ? 04:45:50 10° S 04:50:13 78° WSW 04:51:57 37° NNW visible
07 Dec ? 16:35:25 10° NE 16:38:59 21° E 16:42:31 10° SE visible
07 Dec ? 18:11:24 10° N 18:15:46 44° WNW 18:20:12 10° SW visible
08 Dec ? 03:35:17 10° ESE 03:38:35 21° ENE 03:39:05 21° NE visible
08 Dec ? 05:10:44 10° S 05:14:55 42° W 05:16:44 28° NW visible
08 Dec ? 16:59:27 10° NNE 17:03:48 36° E 17:08:05 10° SSE visible
08 Dec ? 18:36:21 10° N 18:40:14 26° WNW 18:44:07 10° WSW visible
09 Dec ? 03:58:59 10° SE 04:03:00 35° ENE 04:03:52 32° NE visible
09 Dec ? 05:36:06 10° SSW 05:39:42 24° W 05:41:30 19° WNW visible
09 Dec ? 17:23:50 10° NNE 17:28:31 64° E 17:33:08 10° S visible
09 Dec ? 19:01:44 10° NNW 19:04:36 16° WNW 19:07:28 10° W visible
